SCP
-0 -0 -0 -0 0 0 0 0 -0 0 -0 -0 -0 -0 -0 -0 0 -0 -0 -0 -0 -0 -0 -0 0 -0 0 -0 -0 -0 -0 -0 -0 -0 -0 -0 -0 -0 -0 -0 0 0 0 0
-0 0 -0 -0 0 0 -0 -0 -0 -0 -0 -0 -0 0 -0 -0 0 -0 -0 -0 -0 -0 0 0 0 0 0 -0 -0 -0 -0 -0 -0 -0 -0 0 -0 -0 0 0 -0 0 0 0
0 -0 -0 -0 -0 -0 -0 0 0 -0 -0 -0 -0 0 -0 -0 -0 -0 -0 -0 -0 -0 0 0 -0 0 -0 -0 -0 -0 0 -0 -0 -0 -0 -0 0 0 -0 -0 0 0 0 0
0 -0 -0 -0 -0 -0 0 -0 0 0 0 0 -0 0 -0 -0 -0 -0 -0 -0 -0 -0 -0 -0 0 -0 -0 0 0 -0 -0 0 0 -0 0 0 -0 -0 0 -0 -0 -0 -0 0
-0 -0 -0 -0 -0 -0 -0 -0 0 -0 -0 0 -0 0 -0 -0 -0 -0 -0 -0 -0 -0 -0 0 -0 -0 -0 -0 -0 -0 0 0 0 -0 -0 -0 -0 -0 -0 0 0 0 0 0
0 -0 -0 -0 -0 -0 -0 -0 0 0 -0 -0 -0 -0 -0 -0 -0 -0 -0 -0 -0 -0 0 0 0 0 -0 -0 -0 -0 -0 0 -0 -0 -0 -0 -0 0 -0 0 -0 0 0 0
-0 -0 -0 -0 -0 -0 -0 -0 -0 0 -0 -0 -0 0 -0 -0 0 -0 -0 -0 -0 -0 -0 0 0 0 0 0 0 0 -0 -0 -0 -0 -0 -0 -0 -0 -0 0 -0 -0 0 0
-0 -0 -0 -0 0 -0 -0 -0 0 0 0 0 0 0 0 -0 0 -0 -0 -0 -0 -0 -0 -0 -0 0 0 0 0 0 -0 -0 -0 -0 -0 -0 -0 -0 -0 -0 -0 -0 -0 0
-0 0 0 0 0 0 -0 -0 -0 -0 -0 -0 -0 -0 0 -0 0 0 0 -0 -0 -0 0 -0 0 0 -0 -0 -0 -0 -0 -0 -0 -0 -0 -0 -0 -0 -0 -0 0 0 0 -0
-0 -0 -0 0 -0 -0 -0 -0 -0 0 -0 0 0 -0 -0 0 -0 0 0 -0 -0 -0 -0 -0 0 0 0 -0 -0 -0 -0 -0 -0 -0 -0 0 0 0 0 0 -0 0 0 0
-0 -0 0 0 -0 -0 0 -0 0 0 -0 -0 -0 0 0 0 -0 0 0 0 -0 -0 -0 -0 0 0 0 0 0 0 0 0 0 0 0 0 0 0 -0 -0 0 0 -0 0
0 -0 0 -0 0 0 0 -0 -0 -0 -0 -0 -0 -0 -0 0 -0 0 0 0 0 0 -0 0 -0 0 0 0 0 0 0 0 0 0 1 0 0 0 -0 0 0 0 0 0
-0 -0 0 -0 -0 0 0 -0 0 -0 0 -0 0 0 0 -0 -0 0 0 0 0 0 -0 0 -0 0 1 0 0 0 1 1 0 0 0 0 0 0 0 0 0 0 0 0
0 -0 -0 -0 0 0 0 0 0 0 0 0 0 -0 0 0 0 0 0 0 0 0 -0 -0 -0 -0 0 -0 0 1 1 0 0 0 0 0 0 0 0 1 0 1 1 1
-0 -0 -0 -0 0 0 -0 0 0 0 0 0 0 -0 0 0 0 -0 -0 -0 -0 -0 -0 -0 -0 0 -0 -0 -0 0 0 1 0 0 0 0 0 0 1 0 0 1 1 0
-0 0 -0 0 0 0 -0 0 0 0 0 0 0 0 -0 0 0 -0 -0 -0 -0 -0 -0 -0 -0 -0 -0 -0 0 -0 0 0 0 0 0 0 1 1 1 1 0 1 1 0
0 0 -0 -0 -0 0 0 0 0 0 0 0 0 0 0 0 0 0 -0 -0 -0 -0 -0 -0 -0 -0 -0 -0 -0 -0 -0 0 0 0 0 0 1 0 1 1 0 0 0 0
0 -0 -0 -0 0 0 0 0 -0 0 0 0 0 0 0 0 0 0 -0 -0 -0 -0 -0 -0 -0 -0 0 0 0 -0 -0 0 1 1 1 1 0 0 0 -0 -0 -0 -0 -0
-0 -0 -0 -0 -0 -0 0 0 0 0 0 0 0 0 0 0 0 0 -0 -0 -0 -0 -0 0 0 0 0 0 0 0 0 0 0 0 0 0 -0 -1 -0 -1 -0 -0 -0 -0
-0 -0 -0 -0 -0 -0 -0 0 -0 -0 0 0 0 0 -0 0 0 0 -0 -0 -0 -0 -0 -0 0 -0 -0 0 0 0 -0 -0 -0 0 0 -0 -1 -1 -0 -0 -0 -0 -0 -0
0 0 -0 -0 -0 -0 0 0 -0 0 0 0 0 0 0 0 0 0 0 -0 -0 -0 -0 -0 -0 -0 -0 0 0 0 -0 -0 -0 -0 -0 -0 -0 -0 -0 -0 -0 -0 -0 -0
0 0 0 -0 -0 -0 0 0 0 0 0 0 0 0 0 0 0 0 -0 -0 -0 -0 -0 -0 -0 -0 0 -0 -0 -0 -0 -0 -0 -0 -0 -0 -0 -0 -0 -0 -0 -0 -0 -0
0 0 0 0 0 0 -0 0 0 0 0 0 0 0 -0 0 1 0 0 -0 0 -0 -0 -0 -0 -0 0 -0 -0 -0 -0 -0 -0 -0 -0 -0 -0 -0 -0 -0 -0 -0 0 0
0 0 0 0 0 0 0 0 0 0 0 0 0 0 -0 0 0 0 0 0 0 0 0 0 -0 -0 0 0 -0 -0 -0 -0 -0 -0 -0 -0 -0 -0 -0 0 -0 -0 0 0
0 0 1 0 0 0 0 0 0 0 0 0 0 0 0 1 1 0 0 0 0 0 0 0 0 0 0 0 0 -0 -0 -0 -0 -0 -0 -0 -0 0 0 -0 -0 -0 -0 -0
0 1 1 -0 0 0 0 0 0 0 0 0 -0 -0 -0 0 -0 -0 0 0 0 0 0 0 0 0 0 0 0 0 0 -0 -0 -0 0 0 -0 -0 -0 -0 -0 -0 -0 -0
Wind_Speed_500mb
47 28 23 55 11 17 12 5 21 2 12 12 10 18 19 25 24 27 32 39 37 32 27 40 37 33 33 30 28 23 21 18 15 11 12 9 11 9 9 7 8 9 5 6
18 15 53 9 6 9 11 16 23 15 14 15 19 17 26 26 25 29 30 31 37 40 34 45 45 39 36 30 27 23 21 17 16 13 13 12 9 9 10 7 8 6 4 6
7 23 73 14 13 18 43 8 8 29 19 22 14 19 31 29 28 28 33 35 36 40 46 47 43 39 34 31 27 25 23 21 20 20 16 15 12 12 9 11 12 5 4 4
19 35 15 19 23 30 30 12 5 8 2 8 24 10 28 34 30 30 37 39 41 45 44 45 44 40 37 33 28 25 23 22 18 17 20 21 16 16 13 7 7 5 6 5
15 41 42 19 18 20 17 11 9 15 25 3 15 7 23 32 35 35 39 46 44 46 45 41 43 41 38 33 31 26 23 24 24 25 25 22 21 15 10 11 12 4 9 9
17 56 40 15 13 10 16 16 12 14 23 12 9 12 15 26 30 37 43 45 46 45 43 42 39 35 37 35 31 27 25 22 22 25 25 25 23 23 15 13 13 9 6 12
24 30 37 4 24 14 19 28 13 16 8 2 9 14 19 20 18 30 42 46 47 46 47 45 44 41 38 34 31 28 26 24 20 21 24 24 27 24 20 16 11 11 10 11
21 32 23 17 19 20 20 24 10 10 10 15 15 18 16 18 15 9 38 48 47 47 49 49 47 43 40 36 34 29 28 26 25 23 23 23 24 22 20 19 17 14 14 10
33 16 12 8 11 6 27 23 35 5 26 22 17 31 13 18 15 13 13 40 46 48 47 45 44 45 41 39 38 34 30 27 28 27 26 26 25 24 22 21 20 19 19 16
33 25 21 15 10 23 18 32 18 13 5 3 16 28 17 17 15 11 12 21 41 47 48 47 42 43 43 42 41 34 31 28 26 28 28 28 28 25 27 25 27 25 21 28
25 29 13 10 18 24 16 22 12 20 15 1 7 19 13 16 14 10 11 12 25 43 51 47 44 43 44 42 40 37 30 27 24 24 29 29 31 31 29 29 29 27 27 29
24 29 22 29 23 13 19 25 31 5 10 32 6 26 10 16 14 10 11 5 9 31 43 46 48 40 39 36 28 22 12 29 23 26 33 36 34 34 34 32 28 28 30 29
22 21 23 30 26 27 18 28 27 20 24 4 14 13 4 21 14 10 15 11 9 19 30 33 35 34 35 20 23 25 20 15 18 26 31 32 32 32 29 25 24 24 22 22
16 30 29 25 24 22 23 32 29 17 15 8 11 13 12 15 15 18 18 16 18 22 27 32 32 47 46 37 29 26 26 20 20 22 30 33 32 31 25 31 22 15 27 25
18 35 34 33 33 33 37 17 21 17 19 18 8 40 17 16 16 24 25 26 28 31 37 40 46 49 42 34 25 22 20 20 22 25 30 38 29 29 32 14 18 22 36 19
29 32 40 35 30 29 44 25 21 29 17 23 25 21 24 28 21 28 34 33 33 33 34 34 38 33 33 33 29 23 19 14 18 21 31 36 38 35 19 15 15 33 26 26
30 34 31 37 31 31 38 30 31 33 27 25 21 8 10 14 23 32 39 41 38 36 35 35 33 30 28 27 26 23 17 12 15 20 24 24 26 25 26 21 24 28 14 5
45 30 27 28 21 31 18 19 36 33 22 21 20 12 22 11 21 35 42 46 43 40 38 35 33 28 23 20 20 19 16 17 20 24 26 25 22 24 22 25 26 23 19 16
40 34 30 27 31 31 29 29 15 28 29 29 30 28 19 26 21 38 45 48 47 44 39 33 28 24 24 20 20 19 20 22 23 24 28 28 28 29 29 27 26 22 19 15
43 36 27 32 36 40 32 13 72 43 25 19 26 34 40 34 24 24 50 51 49 45 39 32 30 27 27 25 24 23 19 23 23 28 30 30 27 27 28 26 25 21 17 16
33 28 35 28 36 41 33 34 52 24 17 26 27 24 30 24 38 53 55 52 51 46 41 36 33 30 28 26 25 26 24 23 24 26 28 29 29 29 28 26 24 19 16 14
37 33 29 32 39 47 45 29 19 18 25 8 18 10 18 33 32 61 62 57 54 50 45 39 35 32 31 28 29 32 31 30 29 30 31 31 31 26 26 26 20 15 17 14
44 39 30 33 25 30 44 53 34 35 15 3 4 12 30 38 43 58 64 61 57 52 48 41 37 37 33 31 32 34 35 33 31 31 32 30 28 25 24 19 16 13 13 7
41 51 39 36 31 31 24 38 34 16 5 15 14 22 39 35 41 52 59 59 57 54 48 43 41 39 37 36 33 33 34 34 33 32 30 29 27 25 20 16 7 7 5 5
28 24 30 31 31 33 34 44 44 32 21 20 23 31 40 40 45 53 60 60 58 53 48 44 42 41 39 38 35 34 34 37 34 31 28 25 21 20 16 5 12 7 2 10
42 33 17 27 31 38 44 47 48 44 31 28 33 44 48 47 58 61 62 61 60 57 52 49 45 44 42 39 37 35 34 36 34 30 27 26 21 17 18 15 17 10 3 4
Wind_Direction_500mb
255 78 247 268 1 346 289 319 110 9 118 245 227 141 164 173 189 171 176 182 180 177 193 190 191 184 188 188 184 184 195 198 203 218 216 232 234 225 230 243 259 305 326 316
237 121 244 352 278 261 232 246 341 52 153 217 157 220 159 180 186 178 189 184 178 168 176 169 181 187 190 190 193 199 207 216 217 222 218 225 223 226 222 218 261 288 256 275
66 219 271 285 342 343 325 353 199 176 188 207 186 210 162 180 183 182 190 187 176 167 167 174 182 189 194 195 202 209 216 221 226 218 223 225 218 234 216 231 269 200 269 268
303 215 290 324 327 339 168 4 307 256 166 311 206 292 197 172 187 189 194 193 189 181 187 185 192 197 201 203 207 215 217 215 227 221 211 212 210 219 209 254 199 273 284 258
15 329 295 332 13 337 11 329 248 249 247 43 187 237 162 175 188 193 198 193 202 194 196 199 195 192 199 197 201 205 214 218 209 229 199 227 204 224 237 234 259 284 284 311
258 229 278 326 333 312 302 263 225 219 43 266 122 105 158 173 196 191 194 197 199 198 197 195 197 194 191 191 196 197 202 216 206 215 209 206 213 206 217 224 243 263 272 292
233 254 265 219 279 208 248 253 0 334 128 111 58 153 74 116 171 185 188 196 195 197 197 196 196 197 198 196 198 197 200 203 204 207 209 209 207 211 219 215 228 258 250 242
254 263 252 198 264 199 313 320 138 252 182 242 144 121 70 103 111 173 172 188 195 199 195 197 196 197 195 197 195 194 196 199 203 208 207 208 211 212 219 228 218 236 253 275
281 227 217 243 282 303 296 313 341 78 288 13 97 100 105 107 127 155 210 177 193 198 203 194 196 198 196 196 192 193 192 199 202 206 208 207 209 201 215 218 238 233 242 247
266 283 186 150 253 242 275 176 316 21 230 125 321 85 92 153 165 172 194 192 193 200 203 192 199 195 192 191 192 194 197 204 209 208 217 213 215 215 212 220 222 223 228 238
256 266 271 137 238 256 211 217 178 194 256 179 89 313 33 117 122 161 178 208 214 205 201 199 194 194 193 195 194 194 201 209 205 214 216 211 213 216 220 225 234 237 236 242
227 286 278 241 217 244 286 298 267 205 357 290 225 203 101 77 118 120 107 153 225 217 200 203 190 193 186 192 204 206 200 188 205 212 209 212 211 213 217 222 228 236 247 250
269 232 255 259 229 184 226 259 260 267 173 254 299 88 48 109 121 122 130 139 170 184 191 194 169 157 163 174 204 202 214 205 217 214 208 205 209 211 209 222 227 242 251 263
296 272 265 260 278 302 223 209 243 273 278 239 279 269 153 127 153 146 141 149 152 163 169 177 173 169 169 204 200 203 210 204 220 212 208 202 200 199 198 211 213 223 251 237
246 269 270 268 269 282 275 213 202 212 274 271 156 273 260 147 176 158 156 160 156 156 166 172 173 169 178 188 199 203 208 201 214 206 205 209 191 194 200 205 276 239 246 230
233 257 278 280 293 263 263 237 249 258 245 266 286 283 287 129 159 157 163 170 169 171 165 170 176 177 184 189 191 195 208 204 209 212 209 203 196 194 195 207 253 252 235 267
230 253 254 271 261 231 246 246 254 267 263 263 252 233 84 143 170 176 169 171 171 173 168 169 172 178 181 188 189 192 194 189 181 182 188 192 189 196 188 221 247 215 214 161
265 256 258 263 270 298 249 248 236 241 253 274 273 191 178 190 195 180 177 171 171 170 170 166 167 169 175 181 180 177 172 171 171 166 167 170 169 169 156 151 145 143 145 138
251 246 263 256 262 242 252 248 224 240 250 251 257 265 210 157 200 175 179 175 172 169 168 170 166 166 160 163 157 156 155 158 141 140 141 138 141 138 133 132 132 137 130 131
240 240 239 255 262 255 250 288 335 294 237 244 261 260 262 157 202 172 178 175 172 169 168 166 161 157 152 152 150 149 148 156 157 142 138 136 144 137 131 131 131 126 118 111
217 239 250 235 254 265 271 283 183 243 274 293 282 298 291 184 212 164 171 172 172 168 166 164 157 154 152 148 146 142 140 135 136 136 136 135 131 133 133 131 123 112 138 129
211 231 228 245 251 249 254 248 229 297 294 292 304 278 227 195 188 155 168 171 170 167 164 162 157 154 151 154 150 144 140 138 140 138 136 137 132 130 135 130 121 113 94 110
250 228 225 225 245 229 244 271 236 243 286 48 201 175 175 159 144 159 169 171 169 169 164 163 160 155 155 153 154 146 140 142 143 141 140 135 137 142 134 130 118 99 93 131
258 241 254 256 257 277 278 256 232 246 234 251 214 168 177 155 168 168 170 170 170 169 164 163 161 158 155 156 155 151 146 147 150 152 150 146 147 144 137 121 117 147 150 161
291 333 306 251 250 273 263 253 263 250 219 235 196 183 184 170 176 177 173 173 172 169 165 166 163 161 159 157 157 157 155 155 160 156 155 152 156 142 161 148 158 108 204 188
276 276 264 244 234 237 248 250 241 244 213 221 213 200 196 184 186 181 176 176 172 169 166 165 166 165 162 161 162 163 161 164 163 161 166 164 158 159 173 169 171 172 153 146
Wind_Speed_850mb
47 28 23 55 11 17 12 5 21 2 12 12 10 18 19 25 24 27 32 39 37 32 27 40 37 33 33 30 28 23 21 18 15 11 12 9 11 9 9 7 8 9 5 6
18 15 53 9 6 9 11 16 23 15 14 15 19 17 26 26 25 29 30 31 37 40 34 45 45 39 36 30 27 23 21 17 16 13 13 12 9 9 10 7 8 6 4 6
7 23 73 14 13 18 43 8 8 29 19 22 14 19 31 29 28 28 33 35 36 40 46 47 43 39 34 31 27 25 23 21 20 20 16 15 12 12 9 11 12 5 4 4
19 35 15 19 23 30 30 12 5 8 2 8 24 10 28 34 30 30 37 39 41 45 44 45 44 40 37 33 28 25 23 22 18 17 20 21 16 16 13 7 7 5 6 5
15 41 42 19 18 20 17 11 9 15 25 3 15 7 23 32 35 35 39 46 44 46 45 41 43 41 38 33 31 26 23 24 24 25 25 22 21 15 10 11 12 4 9 9
17 56 40 15 13 10 16 16 12 14 23 12 9 12 15 26 30 37 43 45 46 45 43 42 39 35 37 35 31 27 25 22 22 25 25 25 23 23 15 13 13 9 6 12
24 30 37 4 24 14 19 28 13 16 8 2 9 14 19 20 18 30 42 46 47 46 47 45 44 41 38 34 31 28 26 24 20 21 24 24 27 24 20 16 11 11 10 11
21 32 23 17 19 20 20 24 10 10 10 15 15 18 16 18 15 9 38 48 47 47 49 49 47 43 40 36 34 29 28 26 25 23 23 23 24 22 20 19 17 14 14 10
33 16 12 8 11 6 27 23 35 5 26 22 17 31 13 18 15 13 13 40 46 48 47 45 44 45 41 39 38 34 30 27 28 27 26 26 25 24 22 21 20 19 19 16
33 25 21 15 10 23 18 32 18 13 5 3 16 28 17 17 15 11 12 21 41 47 48 47 42 43 43 42 41 34 31 28 26 28 28 28 28 25 27 25 27 25 21 28
25 29 13 10 18 24 16 22 12 20 15 1 7 19 13 16 14 10 11 12 25 43 51 47 44 43 44 42 40 37 30 27 24 24 29 29 31 31 29 29 29 27 27 29
24 29 22 29 23 13 19 25 31 5 10 32 6 26 10 16 14 10 11 5 9 31 43 46 48 40 39 36 28 22 12 29 23 26 33 36 34 34 34 32 28 28 30 29
22 21 23 30 26 27 18 28 27 20 24 4 14 13 4 21 14 10 15 11 9 19 30 33 35 34 35 20 23 25 20 15 18 26 31 32 32 32 29 25 24 24 22 22
16 30 29 25 24 22 23 32 29 17 15 8 11 13 12 15 15 18 18 16 18 22 27 32 32 47 46 37 29 26 26 20 20 22 30 33 32 31 25 31 22 15 27 25
18 35 34 33 33 33 37 17 21 17 19 18 8 40 17 16 16 24 25 26 28 31 37 40 46 49 42 34 25 22 20 20 22 25 30 38 29 29 32 14 18 22 36 19
29 32 40 35 30 29 44 25 21 29 17 23 25 21 24 28 21 28 34 33 33 33 34 34 38 33 33 33 29 23 19 14 18 21 31 36 38 35 19 15 15 33 26 26
30 34 31 37 31 31 38 30 31 33 27 25 21 8 10 14 23 32 39 41 38 36 35 35 33 30 28 27 26 23 17 12 15 20 24 24 26 25 26 21 24 28 14 5
45 30 27 28 21 31 18 19 36 33 22 21 20 12 22 11 21 35 42 46 43 40 38 35 33 28 23 20 20 19 16 17 20 24 26 25 22 24 22 25 26 23 19 16
40 34 30 27 31 31 29 29 15 28 29 29 30 28 19 26 21 38 45 48 47 44 39 33 28 24 24 20 20 19 20 22 23 24 28 28 28 29 29 27 26 22 19 15
43 36 27 32 36 40 32 13 72 43 25 19 26 34 40 34 24 24 50 51 49 45 39 32 30 27 27 25 24 23 19 23 23 28 30 30 27 27 28 26 25 21 17 16
33 28 35 28 36 41 33 34 52 24 17 26 27 24 30 24 38 53 55 52 51 46 41 36 33 30 28 26 25 26 24 23 24 26 28 29 29 29 28 26 24 19 16 14
37 33 29 32 39 47 45 29 19 18 25 8 18 10 18 33 32 61 62 57 54 50 45 39 35 32 31 28 29 32 31 30 29 30 31 31 31 26 26 26 20 15 17 14
44 39 30 33 25 30 44 53 34 35 15 3 4 12 30 38 43 58 64 61 57 52 48 41 37 37 33 31 32 34 35 33 31 31 32 30 28 25 24 19 16 13 13 7
41 51 39 36 31 31 24 38 34 16 5 15 14 22 39 35 41 52 59 59 57 54 48 43 41 39 37 36 33 33 34 34 33 32 30 29 27 25 20 16 7 7 5 5
28 24 30 31 31 33 34 44 44 32 21 20 23 31 40 40 45 53 60 60 58 53 48 44 42 41 39 38 35 34 34 37 34 31 28 25 21 20 16 5 12 7 2 10
42 33 17 27 31 38 44 47 48 44 31 28 33 44 48 47 58 61 62 61 60 57 52 49 45 44 42 39 37 35 34 36 34 30 27 26 21 17 18 15 17 10 3 4
Wind_Direction_850mb
255 78 247 268 1 346 289 319 110 9 118 245 227 141 164 173 189 171 176 182 180 177 193 190 191 184 188 188 184 184 195 198 203 218 216 232 234 225 230 243 259 305 326 316
237 121 244 352 278 261 232 246 341 52 153 217 157 220 159 180 186 178 189 184 178 168 176 169 181 187 190 190 193 199 207 216 217 222 218 225 223 226 222 218 261 288 256 275
66 219 271 285 342 343 325 353 199 176 188 207 186 210 162 180 183 182 190 187 176 167 167 174 182 189 194 195 202 209 216 221 226 218 223 225 218 234 216 231 269 200 269 268
303 215 290 324 327 339 168 4 307 256 166 311 206 292 197 172 187 189 194 193 189 181 187 185 192 197 201 203 207 215 217 215 227 221 211 212 210 219 209 254 199 273 284 258
15 329 295 332 13 337 11 329 248 249 247 43 187 237 162 175 188 193 198 193 202 194 196 199 195 192 199 197 201 205 214 218 209 229 199 227 204 224 237 234 259 284 284 311
258 229 278 326 333 312 302 263 225 219 43 266 122 105 158 173 196 191 194 197 199 198 197 195 197 194 191 191 196 197 202 216 206 215 209 206 213 206 217 224 243 263 272 292
233 254 265 219 279 208 248 253 0 334 128 111 58 153 74 116 171 185 188 196 195 197 197 196 196 197 198 196 198 197 200 203 204 207 209 209 207 211 219 215 228 258 250 242
254 263 252 198 264 199 313 320 138 252 182 242 144 121 70 103 111 173 172 188 195 199 195 197 196 197 195 197 195 194 196 199 203 208 207 208 211 212 219 228 218 236 253 275
281 227 217 243 282 303 296 313 341 78 288 13 97 100 105 107 127 155 210 177 193 198 203 194 196 198 196 196 192 193 192 199 202 206 208 207 209 201 215 218 238 233 242 247
266 283 186 150 253 242 275 176 316 21 230 125 321 85 92 153 165 172 194 192 193 200 203 192 199 195 192 191 192 194 197 204 209 208 217 213 215 215 212 220 222 223 228 238
256 266 271 137 238 256 211 217 178 194 256 179 89 313 33 117 122 161 178 208 214 205 201 199 194 194 193 195 194 194 201 209 205 214 216 211 213 216 220 225 234 237 236 242
227 286 278 241 217 244 286 298 267 205 357 290 225 203 101 77 118 120 107 153 225 217 200 203 190 193 186 192 204 206 200 188 205 212 209 212 211 213 217 222 228 236 247 250
269 232 255 259 229 184 226 259 260 267 173 254 299 88 48 109 121 122 130 139 170 184 191 194 169 157 163 174 204 202 214 205 217 214 208 205 209 211 209 222 227 242 251 263
296 272 265 260 278 302 223 209 243 273 278 239 279 269 153 127 153 146 141 149 152 163 169 177 173 169 169 204 200 203 210 204 220 212 208 202 200 199 198 211 213 223 251 237
246 269 270 268 269 282 275 213 202 212 274 271 156 273 260 147 176 158 156 160 156 156 166 172 173 169 178 188 199 203 208 201 214 206 205 209 191 194 200 205 276 239 246 230
233 257 278 280 293 263 263 237 249 258 245 266 286 283 287 129 159 157 163 170 169 171 165 170 176 177 184 189 191 195 208 204 209 212 209 203 196 194 195 207 253 252 235 267
230 253 254 271 261 231 246 246 254 267 263 263 252 233 84 143 170 176 169 171 171 173 168 169 172 178 181 188 189 192 194 189 181 182 188 192 189 196 188 221 247 215 214 161
265 256 258 263 270 298 249 248 236 241 253 274 273 191 178 190 195 180 177 171 171 170 170 166 167 169 175 181 180 177 172 171 171 166 167 170 169 169 156 151 145 143 145 138
251 246 263 256 262 242 252 248 224 240 250 251 257 265 210 157 200 175 179 175 172 169 168 170 166 166 160 163 157 156 155 158 141 140 141 138 141 138 133 132 132 137 130 131
240 240 239 255 262 255 250 288 335 294 237 244 261 260 262 157 202 172 178 175 172 169 168 166 161 157 152 152 150 149 148 156 157 142 138 136 144 137 131 131 131 126 118 111
217 239 250 235 254 265 271 283 183 243 274 293 282 298 291 184 212 164 171 172 172 168 166 164 157 154 152 148 146 142 140 135 136 136 136 135 131 133 133 131 123 112 138 129
211 231 228 245 251 249 254 248 229 297 294 292 304 278 227 195 188 155 168 171 170 167 164 162 157 154 151 154 150 144 140 138 140 138 136 137 132 130 135 130 121 113 94 110
250 228 225 225 245 229 244 271 236 243 286 48 201 175 175 159 144 159 169 171 169 169 164 163 160 155 155 153 154 146 140 142 143 141 140 135 137 142 134 130 118 99 93 131
258 241 254 256 257 277 278 256 232 246 234 251 214 168 177 155 168 168 170 170 170 169 164 163 161 158 155 156 155 151 146 147 150 152 150 146 147 144 137 121 117 147 150 161
291 333 306 251 250 273 263 253 263 250 219 235 196 183 184 170 176 177 173 173 172 169 165 166 163 161 159 157 157 157 155 155 160 156 155 152 156 142 161 148 158 108 204 188
276 276 264 244 234 237 248 250 241 244 213 221 213 200 196 184 186 181 176 176 172 169 166 165 166 165 162 161 162 163 161 164 163 161 166 164 158 159 173 169 171 172 153 146